Weather History for KMEH - April, 2013

Change the Weather History Date:

Saturday, April 27, 2013

  Actual Average (WUND) Record (WUND)
Temperature  
Mean Temperature 50 °F -  
Max Temperature 70 °F - - (-1)
Min Temperature 32 °F - - (-1)
Degree Days  
Heating Degree Days 14    
Moisture  
Dew Point 31 °F    
Average Humidity 51    
Maximum Humidity 92    
Minimum Humidity 25    
Precipitation  
Precipitation 0.00 in - - ()
Sea Level Pressure  
Sea Level Pressure 30.19 in    
Wind  
Wind Speed 1 mph (West)    
Max Wind Speed 8 mph    
Max Gust Speed 22 mph    
Visibility 10 miles    
Events Rain    
Averages and records for this station are not official NWS values.
T = Trace of Precipitation, MM = Missing Value Source: NWS Daily Summary

Daily Weather History Graph

Daily Weather History Graph

Search for Another Location

Airport or City:

Trip Planner

Search our weather history database for the weather conditions in past years. The results will help you decide how hot, cold, wet, or windy it might be!

Date:

Astronomy

Apr. 27, 2013 Rise Set
Actual Time 5:47 AM PDT 7:55 PM PDT
Civil Twilight 5:15 AM PDT 8:28 PM PDT
Nautical Twilight 4:35 AM PDT 9:08 PM PDT
Astronomical Twilight 3:51 AM PDT 9:52 PM PDT
Moon 10:35 PM PDT (4/27) 7:05 AM PDT (4/27)
Length of Visible Light 15h 13m
Length of Day
14h 08m
Waning Gibbous, 95% of the Moon is Illuminated
Apr 27
Waning Gibbous
May 2
Last Quarter
May 9
New
May 17
First Quarter
May 24
Full

Hourly Weather History & Observations

Time (PDT) Temp. Dew Point Humidity Pressure Visibility Wind Dir Wind Speed Gust Speed Precip Events Conditions
12:56 AM 37.9 °F 35.1 °F 89% 30.24 in 10.0 mi Calm Calm - N/A   Clear
1:56 AM 37.0 °F 33.1 °F 86% 30.24 in 10.0 mi Calm Calm - N/A   Clear
2:56 AM 35.1 °F 32.0 °F 89% 30.24 in 10.0 mi Calm Calm - N/A   Clear
3:56 AM 33.1 °F 30.9 °F 92% 30.23 in 10.0 mi Calm Calm - N/A   Clear
4:56 AM 32.0 °F 30.0 °F 92% 30.24 in 10.0 mi Calm Calm - N/A   Clear
5:56 AM 32.0 °F 30.0 °F 92% 30.24 in 10.0 mi Calm Calm - N/A   Clear
7:56 AM 41.0 °F 36.0 °F 82% 30.24 in 10.0 mi Calm Calm - N/A   Clear
8:56 AM 55.9 °F 39.0 °F 53% 30.21 in 10.0 mi Calm Calm - N/A   Clear
9:56 AM 62.1 °F 28.0 °F 28% 30.21 in 10.0 mi Calm Calm - N/A   Clear
10:56 AM 64.9 °F 28.0 °F 25% 30.20 in 10.0 mi West 5.8 mph - N/A   Clear
11:56 AM 66.9 °F 30.0 °F 25% 30.19 in 10.0 mi Variable 4.6 mph - N/A   Clear
12:56 PM 66.9 °F 30.0 °F 25% 30.18 in 10.0 mi West 8.1 mph 21.9 mph N/A   Partly Cloudy
1:56 PM 69.1 °F 32.0 °F 25% 30.16 in 10.0 mi Variable 3.5 mph - N/A   Clear
2:56 PM 66.0 °F 32.0 °F 28% 30.16 in 10.0 mi Variable 4.6 mph - N/A   Mostly Cloudy
3:56 PM 63.0 °F 34.0 °F 34% 30.17 in 10.0 mi Variable 3.5 mph - N/A   Mostly Cloudy
4:56 PM 59.0 °F 33.1 °F 38% 30.18 in 10.0 mi Variable 5.8 mph - N/A   Overcast
5:56 PM 57.9 °F 32.0 °F 37% 30.18 in 10.0 mi Calm Calm - N/A   Overcast
6:56 PM 57.0 °F 28.0 °F 33% 30.19 in 10.0 mi Calm Calm - N/A   Overcast
7:56 PM 55.0 °F 26.1 °F 33% 30.17 in 10.0 mi Variable 3.5 mph - N/A   Scattered Clouds
8:56 PM 53.1 °F 28.0 °F 38% 30.14 in 10.0 mi Variable 5.8 mph - N/A   Clear
9:56 PM 51.1 °F 30.0 °F 44% 30.14 in 10.0 mi Calm Calm - N/A   Mostly Cloudy
10:56 PM 50.0 °F 30.0 °F 46% 30.12 in 10.0 mi Calm Calm - N/A   Mostly Cloudy
11:56 PM 50.0 °F 32.0 °F 50% 30.12 in 10.0 mi Variable 3.5 mph - 0.00 in Rain Light Rain